Time,TemperatureF,DewpointF,PressureIn,WindDirection,WindDirectionDegrees,WindSpeedMPH,WindSpeedGustMPH,Humidity,HourlyPrecipIn,Conditions,Clouds,dailyrainin,SoftwareType,DateUTC
2013-01-19 00:00:00,35.0,-99.9,29.58,North,-999,-999.0,-999.0,-999,-99.99,,,-99.99,,2013-01-19 00:00:00,
2013-01-19 00:33:00,35.0,-99.9,29.58,North,-999,-999.0,-999.0,-999,-99.99,,,-99.99,,2013-01-19 00:33:00,
2013-01-19 00:43:00,35.0,-99.9,29.58,North,-999,-999.0,-999.0,-999,-99.99,,,-99.99,,2013-01-19 00:43:00,
2013-01-19 00:53:00,35.0,-99.9,29.58,North,-999,-999.0,-999.0,-999,-99.99,,,-99.99,,2013-01-19 00:53:00,
2013-01-19 01:00:00,36.0,30.0,29.59,North,-999,-999.0,-999.0,79,-99.99,,,-99.99,,2013-01-19 01:00:00,
2013-01-19 01:42:00,36.0,30.0,29.59,North,-999,-999.0,-999.0,79,-99.99,,,-99.99,,2013-01-19 01:42:00,
2013-01-19 01:52:00,36.0,30.0,29.59,North,-999,-999.0,-999.0,79,-99.99,,,-99.99,,2013-01-19 01:52:00,
2013-01-19 02:00:00,36.0,30.0,29.59,North,-999,-999.0,-999.0,78,-99.99,,,-99.99,,2013-01-19 02:00:00,
2013-01-19 02:42:00,36.0,30.0,29.59,North,-999,-999.0,-999.0,78,-99.99,,,-99.99,,2013-01-19 02:42:00,
2013-01-19 02:52:00,36.0,30.0,29.59,North,-999,-999.0,-999.0,78,-99.99,,,-99.99,,2013-01-19 02:52:00,
2013-01-19 03:00:00,36.0,29.0,29.60,North,-999,-999.0,-999.0,76,-99.99,,,-99.99,,2013-01-19 03:00:00,
2013-01-19 03:42:00,36.0,29.0,29.60,North,-999,-999.0,-999.0,76,-99.99,,,-99.99,,2013-01-19 03:42:00,
2013-01-19 03:52:00,36.0,29.0,29.60,North,-999,-999.0,-999.0,76,-99.99,,,-99.99,,2013-01-19 03:52:00,
2013-01-19 04:42:00,36.0,29.0,29.61,North,-999,-999.0,-999.0,74,-99.99,,,-99.99,,2013-01-19 04:42:00,
2013-01-19 04:52:00,36.0,29.0,29.61,North,-999,-999.0,-999.0,74,-99.99,,,-99.99,,2013-01-19 04:52:00,
2013-01-19 05:00:00,36.0,29.0,29.61,North,-999,-999.0,-999.0,75,-99.99,,,-99.99,,2013-01-19 05:00:00,
2013-01-19 05:42:00,36.0,29.0,29.61,North,-999,-999.0,-999.0,75,-99.99,,,-99.99,,2013-01-19 05:42:00,
2013-01-19 05:52:00,36.0,29.0,29.61,North,-999,-999.0,-999.0,75,-99.99,,,-99.99,,2013-01-19 05:52:00,
2013-01-19 06:00:00,36.0,29.0,29.61,North,-999,-999.0,-999.0,73,-99.99,,,-99.99,,2013-01-19 06:00:00,
2013-01-19 06:42:00,36.0,29.0,29.61,North,-999,-999.0,-999.0,73,-99.99,,,-99.99,,2013-01-19 06:42:00,
2013-01-19 06:52:00,36.0,29.0,29.61,North,-999,-999.0,-999.0,73,-99.99,,,-99.99,,2013-01-19 06:52:00,
2013-01-19 07:00:00,35.0,29.0,29.62,North,-999,-999.0,-999.0,79,-99.99,,,-99.99,,2013-01-19 07:00:00,
2013-01-19 07:42:00,35.0,29.0,29.62,North,-999,-999.0,-999.0,79,-99.99,,,-99.99,,2013-01-19 07:42:00,
2013-01-19 07:52:00,35.0,29.0,29.62,North,-999,-999.0,-999.0,79,-99.99,,,-99.99,,2013-01-19 07:52:00,
2013-01-19 08:00:00,35.0,30.0,29.64,North,-999,-999.0,-999.0,81,-99.99,,,-99.99,,2013-01-19 08:00:00,
2013-01-19 08:32:00,35.0,30.0,29.64,North,-999,-999.0,-999.0,81,-99.99,,,-99.99,,2013-01-19 08:32:00,
2013-01-19 08:42:00,35.0,30.0,29.64,North,-999,-999.0,-999.0,81,-99.99,,,-99.99,,2013-01-19 08:42:00,
2013-01-19 08:52:00,35.0,30.0,29.64,North,-999,-999.0,-999.0,81,-99.99,,,-99.99,,2013-01-19 08:52:00,
2013-01-19 09:00:00,35.0,-99.9,29.65,North,-999,-999.0,-999.0,-999,-99.99,,,-99.99,,2013-01-19 09:00:00,
2013-01-19 09:43:00,35.0,-99.9,29.65,North,-999,-999.0,-999.0,-999,-99.99,,,-99.99,,2013-01-19 09:43:00,
2013-01-19 09:53:00,35.0,-99.9,29.65,North,-999,-999.0,-999.0,-999,-99.99,,,-99.99,,2013-01-19 09:53:00,
2013-01-19 10:00:00,36.0,-99.9,29.67,North,-999,-999.0,-999.0,-999,-99.99,,,-99.99,,2013-01-19 10:00:00,
2013-01-19 10:43:00,36.0,-99.9,29.67,North,-999,-999.0,-999.0,-999,-99.99,,,-99.99,,2013-01-19 10:43:00,
2013-01-19 10:53:00,36.0,-99.9,29.67,North,-999,-999.0,-999.0,-999,-99.99,,,-99.99,,2013-01-19 10:53:00,
2013-01-19 11:00:00,38.0,-99.9,29.68,North,-999,-999.0,-999.0,-999,-99.99,,,-99.99,,2013-01-19 11:00:00,
2013-01-19 12:00:00,38.0,-99.9,29.68,North,-999,-999.0,-999.0,-999,-99.99,,,-99.99,,2013-01-19 12:00:00,
2013-01-19 12:49:00,38.0,-99.9,29.68,North,-999,-999.0,-999.0,-999,-99.99,,,-99.99,,2013-01-19 12:49:00,
2013-01-19 12:53:00,38.0,-99.9,29.68,North,-999,-999.0,-999.0,-999,-99.99,,,-99.99,,2013-01-19 12:53:00,
2013-01-19 13:00:00,38.0,-99.9,29.70,North,-999,-999.0,-999.0,-999,-99.99,,,-99.99,,2013-01-19 13:00:00,
2013-01-19 13:43:00,38.0,-99.9,29.70,North,-999,-999.0,-999.0,-999,-99.99,,,-99.99,,2013-01-19 13:43:00,
2013-01-19 13:54:00,38.0,-99.9,29.70,North,-999,-999.0,-999.0,-999,-99.99,,,-99.99,,2013-01-19 13:54:00,
2013-01-19 14:00:00,39.0,30.0,29.71,North,-999,-999.0,-999.0,68,-99.99,,,-99.99,,2013-01-19 14:00:00,
2013-01-19 14:33:00,39.0,30.0,29.71,North,-999,-999.0,-999.0,68,-99.99,,,-99.99,,2013-01-19 14:33:00,
2013-01-19 14:42:00,39.0,30.0,29.71,North,-999,-999.0,-999.0,68,-99.99,,,-99.99,,2013-01-19 14:42:00,
2013-01-19 14:52:00,39.0,30.0,29.71,North,-999,-999.0,-999.0,68,-99.99,,,-99.99,,2013-01-19 14:52:00,
2013-01-19 15:00:00,38.0,-99.9,29.72,North,-999,-999.0,-999.0,-999,-99.99,,,-99.99,,2013-01-19 15:00:00,
2013-01-19 15:34:00,38.0,-99.9,29.72,North,-999,-999.0,-999.0,-999,-99.99,,,-99.99,,2013-01-19 15:34:00,
2013-01-19 15:43:00,38.0,-99.9,29.72,North,-999,-999.0,-999.0,-999,-99.99,,,-99.99,,2013-01-19 15:43:00,
2013-01-19 15:54:00,38.0,-99.9,29.72,North,-999,-999.0,-999.0,-999,-99.99,,,-99.99,,2013-01-19 15:54:00,
2013-01-19 16:00:00,38.0,30.0,29.74,North,-999,-999.0,-999.0,73,-99.99,,,-99.99,,2013-01-19 16:00:00,
2013-01-19 16:42:00,38.0,30.0,29.74,North,-999,-999.0,-999.0,73,-99.99,,,-99.99,,2013-01-19 16:42:00,
2013-01-19 17:00:00,35.0,34.0,29.76,North,-999,-999.0,-999.0,95,-99.99,,,-99.99,,2013-01-19 17:00:00,
2013-01-19 17:42:00,35.0,34.0,29.76,North,-999,-999.0,-999.0,95,-99.99,,,-99.99,,2013-01-19 17:42:00,
2013-01-19 17:53:00,35.0,34.0,29.76,North,-999,-999.0,-999.0,95,-99.99,,,-99.99,,2013-01-19 17:53:00,
2013-01-19 18:00:00,36.0,26.0,29.78,North,-999,-999.0,-999.0,65,-99.99,,,-99.99,,2013-01-19 18:00:00,
2013-01-19 18:42:00,36.0,26.0,29.78,North,-999,-999.0,-999.0,65,-99.99,,,-99.99,,2013-01-19 18:42:00,
2013-01-19 18:52:00,36.0,26.0,29.78,North,-999,-999.0,-999.0,65,-99.99,,,-99.99,,2013-01-19 18:52:00,
2013-01-19 19:00:00,35.0,23.0,29.80,North,-999,-999.0,-999.0,60,-99.99,,,-99.99,,2013-01-19 19:00:00,
2013-01-19 19:42:00,35.0,23.0,29.80,North,-999,-999.0,-999.0,60,-99.99,,,-99.99,,2013-01-19 19:42:00,
2013-01-19 19:52:00,35.0,23.0,29.80,North,-999,-999.0,-999.0,60,-99.99,,,-99.99,,2013-01-19 19:52:00,
2013-01-19 20:42:00,35.0,24.0,29.80,North,-999,-999.0,-999.0,62,-99.99,,,-99.99,,2013-01-19 20:42:00,
2013-01-19 20:52:00,35.0,24.0,29.80,North,-999,-999.0,-999.0,62,-99.99,,,-99.99,,2013-01-19 20:52:00,
2013-01-19 21:00:00,35.0,22.0,29.82,North,-999,-999.0,-999.0,61,-99.99,,,-99.99,,2013-01-19 21:00:00,
2013-01-19 21:43:00,35.0,22.0,29.82,North,-999,-999.0,-999.0,61,-99.99,,,-99.99,,2013-01-19 21:43:00,
2013-01-19 22:42:00,35.0,22.0,29.82,North,-999,-999.0,-999.0,57,-99.99,,,-99.99,,2013-01-19 22:42:00,
2013-01-19 23:00:00,36.0,23.0,29.82,North,-999,-999.0,-999.0,59,-99.99,,,-99.99,,2013-01-19 23:00:00,
2013-01-19 23:42:00,36.0,23.0,29.82,North,-999,-999.0,-999.0,59,-99.99,,,-99.99,,2013-01-19 23:42:00,
2013-01-19 23:53:00,36.0,23.0,29.82,North,-999,-999.0,-999.0,59,-99.99,,,-99.99,,2013-01-19 23:53:00,